Regional Weather Roundup
Issued by NWS

Home | Current Version | Previous Version | Text Only | Print | Product List | Glossary On
Versions: 1 2 3 4 5 6 7 8 9 10 11 12 13 14 15 16 17 18 19 20 21 22 23 24 25 26 27 28 29 30 31 32 33 34 35 36 37 38 39 40 41 42 43 44 45 46 47 48 49 50
000
ASUS44 KFWD 270215
RWRTX
NORTH TEXAS HOURLY WEATHER ROUNDUP
NATIONAL WEATHER SERVICE FORT WORTH TX
900 PM CDT THU MAR 26 2015

NOTE: "FAIR" INDICATES FEW OR NO CLOUDS BELOW 12,000 FEET WITH NO
SIGNIFICANT WEATHER AND/OR OBSTRUCTIONS TO VISIBILITY.

TXZ118-119-270300-
DALLAS/FORT WORTH METROPLEX

CITY           SKY/WX    TMP DP  RH WIND       PRES   REMARKS
DFW AIRPORT    CLEAR     56  30  37 N10       30.13R
DALLAS LOVE    CLEAR     59  31  34 N7        30.14R
FTW MEACHAM    CLEAR     57  34  41 NW6       30.14R
DAL-EXECUTIVE  CLEAR     57  31  37 N8        30.13R
FTW-ALLIANCE   CLEAR     53  33  46 NW7       30.14R
FTW-SPINKS     CLEAR     53  34  48 N7        30.16R
ARLINGTON      CLEAR     58  29  33 NW10      30.14R
MESQUITE       CLEAR     55  33  44 N7        30.13R
LANCASTER      CLEAR     51  35  56 NW6       30.14R
$$

TXZ091>094-102>105-117-120-121-131>134-270300-
NORTH CENTRAL TEXAS

CITY           SKY/WX    TMP DP  RH WIND       PRES   REMARKS
SHRMAN/DENISON CLEAR     53  36  54 N7        30.15R
GAINESVILLE    CLEAR     50  33  51 NW7       30.17R
BOWIE          CLEAR     53  35  50 NW3       30.16R
BRIDGEPORT     CLEAR     55  39  54 N5        30.18R
DECATUR        CLEAR     53  29  40 NW3       30.16R
DENTON         CLEAR     53  35  50 N6        30.15R
MCKINNEY       CLEAR     52  35  52 NW5       30.14R
GREENVILLE     CLEAR     54  32  43 N3        30.14R
ROCKWALL       CLEAR     55  34  44 N3        30.12R HAZE
TERRELL        CLEAR     59  33  37 N7        30.13R
WAXAHACHIE     CLEAR     53  36  52 NW8       30.15R
CLEBURNE       CLEAR     54  34  47 NW7       30.16R
GRANBURY         N/A     54  37  51 NW5       30.18R
$$

TXZ083>090-098>101-113>116-127>130-139>142-154-155-270300-
WESTERN NORTH TEXAS

CITY           SKY/WX    TMP DP  RH WIND       PRES   REMARKS
WICHITA FALLS  CLEAR     54  35  48 VRB3      30.14S
WF-KICKAPOO    CLEAR     56  36  45 CALM      30.16S
VERNON         PTCLDY    54  28  36 SE6       30.14S
ABILENE        CLEAR     56  27  32 NE6       30.18S
ABILENE-DYESS  CLEAR     55  32  41 NE6       30.17R
BRECKENRIDGE   CLEAR     57  30  35 N3        30.18R
GRAHAM         CLEAR     55  35  47 CALM      30.16R
MINERAL WELLS  CLEAR     53  35  50 NW7       30.15R
STEPHENVILLE   CLEAR     54  32  43 N5        30.19R
COMANCHE       CLEAR     53  34  49 N7        30.18R
BROWNWOOD      CLEAR     54  30  40 N5        30.18R
COLEMAN        CLEAR     51  33  50 N7        30.19R
BRADY          CLEAR     52  30  43 N7        30.17R
$$

TXZ143>147-156>162-174-175-270300-
CENTRAL TEXAS

CITY           SKY/WX    TMP DP  RH WIND       PRES   REMARKS
WACO           CLEAR     55  34  45 N7        30.14R
WACO-TSTC      CLEAR     52  36  54 NW6       30.14R
WACO-MCGREGOR  CLEAR     54  32  43 N6        30.15R
HILLSBORO      CLEAR     53  35  50 N7        30.14R
CORSICANA      CLEAR     55  39  54 N5        30.13R
MEXIA          CLEAR     53  37  55 N5        30.12R
HEARNE         CLEAR     55  39  54 NW9       30.12R
CAMERON        CLEAR     55  40  57 NW6       30.12R
TEMPLE         CLEAR     54  34  47 NW7       30.13R
KILLEEN        CLEAR     54  33  45 N7        30.15R
KILLEEN-SKYLRK CLEAR     55  30  38 MISG      30.15R
FORT HOOD      CLEAR     55  33  42 N9        30.13R
GATESVILLE     CLEAR     55  36  47 CALM      30.17R
HAMILTON       CLEAR     51  33  50 N5        30.17R
$$

TXZ095>097-106>112-122>126-135>138-148>153-164>167-270300-
EAST TEXAS

CITY           SKY/WX    TMP DP  RH WIND       PRES   REMARKS
SULPHUR SPRNGS CLEAR     55  35  48 N8        30.14R
MOUNT PLEASANT CLEAR     55  34  45 NW7       30.12R
GILMER         CLEAR     55  36  48 NW6       30.09R
MINEOLA        CLEAR     54  34  47 CALM      30.12R
TYLER          CLEAR     56  34  43 N5        30.10R
LONGVIEW       CLEAR     55  40  56 NW8       30.07R
MARSHALL       CLEAR     53  49  86 CALM      30.09R
ATHENS         CLEAR     55  34  44 N6        30.11R
PALESTINE      CLEAR     56  37  48 NW5       30.12R
JACKSONVILLE   CLEAR     57  38  49 NW6       30.11R
HENDERSON      CLEAR     56  39  52 NW3       30.09R
NACOGDOCHES    PTCLDY    50  45  81 CALM      30.08R
LUFKIN         MOCLDY    56  48  74 CALM      30.06S
$$

SUPPLEMENTAL OBSERVATIONS (CENTRAL)

CITY           SKY/WX    TMP DP  RH WIND       PRES   REMARKS
LAKE TEXOMA      N/A     55  30  38 N1          N/A
PAT MAYSE LAKE   N/A     52  30  43 N3          N/A
GREENVILLE       N/A     54  32  43 N7          N/A
CEDAR HILL       N/A     57  32  38 N6          N/A
MCGREGOR         N/A     54  36  50 NW3         N/A
TEMPLE           N/A     59  32  36 N2          N/A
$$

SUPPLEMENTAL OBSERVATIONS (WEST)

CITY           SKY/WX    TMP DP  RH WIND       PRES   REMARKS
MILLERS CREEK    N/A     54  34  47 SE3         N/A
POSSUM KINGDOM   N/A     54  32  43 NW3         N/A
GRANBURY         N/A     54  34  47 NW5         N/A
HAMBY            N/A     52  28  40 E2          N/A
IVIE RESERVOIR   N/A     55  28  35 N6          N/A
COLORADO BEND    N/A     54  32  43 N2          N/A
$$

SUPPLEMENTAL OBSERVATIONS (EAST)

CITY           SKY/WX    TMP DP  RH WIND       PRES   REMARKS
CLARKSVILLE      N/A     52  34  50 N8          N/A
TEXARKANA        N/A     52  41  66 NW2         N/A
LINDEN           N/A     55  37  50 N3          N/A
GILMER           N/A     55  34  44 NW6         N/A
HENDERSON        N/A     55  39  54 N5          N/A
LUFKIN           N/A     54  48  82 MISG        N/A
N SABINE NF      N/A     52  46  82 MISG        N/A
S SABINE NF      N/A     55  48  76 CALM        N/A
$$

SUPPLEMENTAL OBSERVATIONS ARE A COLLECTION OF AUTOMATED INSTRUMENTS
THAT ARE MAINTAINED BY A VARIETY OF FEDERAL AND STATE AGENCIES.
CERTAIN ELEMENTS...SUCH AS HUMIDITY VALUES AND SUSTAINED WIND
SPEEDS...MAY BE APPROXIMATED.



USA.gov is the U.S. government's official web portal to all federal, state and local government web resources and services.